Погода в Няксимволе

Погода в Няксимволе : погода сейчас, прогноз погоды и архив. Всё, что Вы хотите узнать о погоде в Няксимволе!

Хотите узнать прогноз погоды в Няксимволе? Тогда Вам сюда: Погода в Няксимволе

Поиск расширенной информации на нашем сайте:

Другие новости

Новости СМИ2

Главная страница сайта

Новости сайта

03.07.2017

Напоминаем, что на нашем специализированном сайте Метеоцентр.Азия вы можете получить высокодетализированные автоматические прогнозы погоды по пунктам России, СНГ и мира в авиационном формате (включающие направление и скорость ветра, видимость, явления погоды, количество и форму облачности, нижнюю и верхнюю границу облачности).


Погода в Няксимволе - сегодня

Время (UTC), дата Ветер
(°,м/с) 
Видим.   Явления Облачность Т
(°С)
Тd
(°С)
f(%) Тe
(°С)
Pmin
(гПа)
dP
(гПа)
Po
(мм)
O2
(г/м3)
Тmin Tmax R s Состояние
почвы
00 16.08.18 тихо ()   20000 м    6/0 средняя, верхняя 
[Ac As|Ci fib]
+4.9 +4.6 98 +5  1011.4  754  298           
03 16.08.18 290 (З) 20000 м    10/10 1000 м 
[Sc]
+8.5 +8.1 97 +10  1011.8  0.5  754  293  +4.9         
06 16.08.18 тихо ()   20000 м  в посл. час дождь  9/9 1000 м 
[Sc]
+13.7 +10.4 80 +15  1011.3  -0.3  754  287           
09 16.08.18 350 (С) 20000 м    8/8 1000 м 
[Cu med, cong]
+16.5 +10.9 69 +20  1011.1  -0.2  754  284           
12 16.08.18 240 (ЮЗ) 20000 м    9/6 1000 м верхняя 
[Cu med, cong|Ci fib]
+18.3 +10.1 59 +20  1010.5  -0.5  753  283           
18 16.08.18 310 (СЗ) 20000 м    6/0 верхняя 
[Ci]
+9 +7.9 93 +10  1011.5  0.7  754  293           
21 16.08.18 300 (СЗ) 20000 м    3/0 верхняя 
[Ci fib]
+5.5 +4.9 96 +6  1011.8  0.2  754  297           
00 17.08.18 330 (СЗ) 20000 м    3/0 верхняя 
[Ci fib]
+4.2 +3.8 97 +4  1012.2  0.4  754  299           
03 17.08.18 310 (СЗ) 20000 м    10/10 1000 м 
[Sc]
+7.4 +6.3 93 +7  1012.9  0.8  755  295  +4.1         
06 17.08.18 350 (С) 20000 м    10/10 1000 м 
[Sc]
+13.8 +8.7 71 +14  1013.2  0.4  755  288           
12 17.08.18 360 (С) 2{10}  20000 м    8/8 1000 м средняя 
[Sc|Ac trans]
+17 +7.6 54 +18  1013.5  0.3  756  285           
15 17.08.18 010 (С) 20000 м  {дождь}  9/9 1000 м 
[Sc]
+13.1 +9.8 80 +15  1014.6  756  289    +17.3  0.4     
18 17.08.18 330 (СЗ) 20000 м  {дождь}  10/10 1000 м 
[Sc]
+11.2 +9.2 87 +11  1015.5  0.8  757  291           
21 17.08.18 330 (СЗ) 20000 м  слаб. дождь  10/10 1000 м 
[Sc]
+9.8 +9.4 97 +10  1016.3  0.9  758  293           
00 18.08.18 320 (СЗ) 20000 м  {дождь}  9/9 1000 м 
[Sc]
+8.7 +8.5 99 +8  1017.7  1.3  759  295           
03 18.08.18 320 (СЗ) 20000 м    9/0 средняя, верхняя 
[As op|Cs]
+9.6 +8.8 95 +10  1018.7  759  294  +7.9       
06 18.08.18 300 (СЗ) 20000 м    8/8 1000 м верхняя 
[Sc|Ci fib]
+13.6 +8.1 69 +14  1018.8  0.2  760  290           
09 18.08.18 340 (С) 20000 м    9/9 600 м 
[Sc]
+16.1 +7.4 56 +16  1018.1  -0.7  759  288           
12 18.08.18 030 (СВ) 20000 м    6/4 1000 м верхняя 
[Sc|Ci fib]
+16.9 +7.4 53 +17  1018.2  0.2  759  287           
18 18.08.18 тихо ()   20000 м    8/5 1000 м верхняя 
[Sc|Ci fib]
+8.4 +7.4 93 +8  1020.3  1.1  761  296           
21 18.08.18 100 (В) 20000 м    3/0 верхняя 
[Ci fib]
+5.4 +4.9 97 +6  1020.8  0.5  761  300           
00 19.08.18 тихо ()   20000 м  туман  3/0 верхняя 
[Cs]
+1.9 +1.9 100 +2  1021.3  0.3  761  304           
03 19.08.18 тихо ()   20000 м  {туман}  ясно 
+6.1 +6 99 +6  1021.6  0.5  761  299  +1.6         
06 19.08.18 180 (Ю) 20000 м  {туман}  10/0 верхняя 
[Cs]
+14.6 +7.3 62 +15  1020.4  -1  761  290           
09 19.08.18 тихо ()   20000 м    10/0 средняя, верхняя 
[Ac trans|Ci fib]
+18 +7.3 50 +18  1018.9  -1.4  760  286           
Время (UTC), дата Ветер
(°,м/с) 
Видим.   Явления Облачность Т
(°С)
Тd
(°С)
f(%) Тe
(°С)
Pmin
(гПа)
dP
(гПа)
Po
(мм)
O2
(г/м3)
Тmin Tmax R s Состояние
почвы

Для получения пояснительной информации подведите курсор к названию столбца.

ПОГОДА в Няксимволе - архив

Всё, что Вы хотите узнать о погоде в Няксимволе - удобно и подробно!

Выберите нужную дату (начиная с 1 января 2015* года) и нажмите кнопку "Найти".
Будут отображены архивные сводки погоды по пункту Няксимволь, начиная с указанной даты.


Отображать данные в формате CSV (для использования в таблицах Excel)


Внимание! Наш архив погоды предназначен исключительно для личного некоммерческого использования в познавательных целях. Если Вам необходимы официальные справки о состоянии погоды (для производственных, юридических, коммерческих и т.п. целей), обращайтесь в органы Росгидромета.

*Примечание: данная дата относится к архиву по метеостанциям СССР (Россия, СНГ, Балтия).
Архив по метеостанциям Зарубежной Европы и Азии (кроме Китая) хранится 10 дней, по другим регионам земного шара (Китай, Африка, Америка, Австралия, Океания) - 1 день.

Няксимволь - район местоположения метеостанции


Название, широта, долгота, высота метеостанции:
Няксимволь 62.4°ш. 60.9°д. 51 м над ур. моря [Российская Федерация]

Дополнительная информация

В oтличие oт бoльшинства пoгoдных сайтoв мы публикуем пoдрoбную метеoинфoрмацию в детальнoм прoфессиoнальнoм фoрмате.

Характеристики температуры и влажнoсти вoздуха измеряются на высoте 2 м в тени вдали oт зданий и деревьев.
Скoрoсть ветра измеряется на высoте 10 м (на урoвне рoста челoвека скoрoсть ветра ниже в 1.5-2 раза). Если метеoстанция нахoдится в гoрoде или в лесу, тo скoрoсть ветра занижена на 2-4 м/с пo сравнению с oткрытым местoм. Скoрoсть ветра над акватoриями крупных рек и oзёр, а также на вершинах хoлмoв на 2-5 м/с выше, чем в oбычных услoвиях.
Атмoсфернoе давление в разных тoчках местнoсти мoжет значительнo oтличаться oт давления на метеoстанции, в зависимoсти oт услoвий рельефа (при пoдъёме на 10 м давление пoнижается примернo на 1 мм рт.ст.).